MDT,Max TemperatureF,Mean TemperatureF,Min TemperatureF,Max Dew PointF,MeanDew PointF,Min DewpointF,Max Humidity, Mean Humidity, Min Humidity, Max Sea Level PressureIn, Mean Sea Level PressureIn, Min Sea Level PressureIn, Max VisibilityMiles, Mean VisibilityMiles, Min VisibilityMiles, Max Wind SpeedMPH, Mean Wind SpeedMPH, Max Gust SpeedMPH,PrecipitationIn, CloudCover, Events, WindDirDegrees
2012-10-1,91,76,62,34,30,28,28,19,11,30.24,30.13,30.03,10,10,10,9,4,,0.00,0,,189
2012-10-2,93,76,60,34,30,27,30,21,11,30.11,30.03,29.91,10,10,10,20,5,21,0.00,0,,170
2012-10-3,93,76,59,34,30,27,29,19,12,30.06,29.99,29.94,10,10,10,14,3,22,0.00,0,,219
2012-10-4,87,73,59,34,31,28,34,21,14,30.11,30.03,29.98,10,10,10,16,4,18,0.00,0,,251
2012-10-5,87,74,60,36,32,28,34,23,12,30.11,30.03,29.97,10,10,10,17,3,17,0.00,0,,284
2012-10-6,84,72,60,32,25,18,31,19,11,30.08,30.00,29.92,10,10,10,18,4,24,0.00,0,,18
2012-10-7,80,68,57,21,19,16,21,16,11,30.13,30.03,29.96,10,10,10,9,4,,0.00,0,,100
2012-10-8,82,68,53,32,25,19,28,20,14,30.08,30.00,29.93,10,10,10,9,4,18,0.00,0,,152
2012-10-9,84,68,53,39,34,30,41,28,18,30.06,29.99,29.93,10,10,10,8,3,,0.00,0,,257
2012-10-10,82,71,60,46,40,36,40,31,23,30.06,29.99,29.90,10,10,10,10,5,,0.00,2,,240
2012-10-11,78,66,55,54,43,36,88,51,28,29.98,29.94,29.89,10,10,8,18,6,23,0.13,3,Thunderstorm,160
2012-10-12,62,56,51,54,47,41,94,72,48,30.13,30.03,29.93,10,10,7,15,5,,0.18,5,Thunderstorm,266
2012-10-13,69,60,50,48,45,43,82,60,40,30.28,30.21,30.13,10,10,10,12,4,,0.00,1,,164
2012-10-14,78,64,51,48,44,37,82,55,23,30.35,30.25,30.16,10,10,10,8,3,,0.00,0,,225
2012-10-15,82,66,51,46,43,37,71,47,25,30.20,30.12,30.00,10,10,9,7,3,,0.00,0,,156
2012-10-16,80,66,53,45,41,37,67,44,21,30.07,29.98,29.84,10,10,10,13,3,17,0.00,0,,190
2012-10-17,78,68,57,43,33,12,55,32,12,30.13,30.05,29.94,10,10,10,18,4,25,0.00,0,,152
2012-10-18,78,63,48,25,20,18,32,20,12,30.26,30.17,30.10,10,10,10,10,2,,0.00,0,,148
2012-10-19,80,65,50,28,25,19,37,24,14,30.17,30.07,29.94,10,10,3,7,3,,0.00,0,,158
2012-10-20,80,64,48,30,28,27,50,28,15,29.97,29.89,29.79,10,10,3,12,3,,0.00,0,,181
2012-10-21,78,66,53,45,36,28,47,34,24,29.87,29.83,29.77,10,9,0,26,4,34,0.00,1,,220
2012-10-22,78,69,60,46,41,37,55,39,24,29.89,29.84,29.79,10,10,10,31,13,39,0.00,1,,172
2012-10-23,73,64,55,37,31,21,44,29,16,29.92,29.86,29.81,10,10,10,22,12,29,0.00,0,,193
2012-10-24,66,58,50,30,26,16,43,30,15,30.10,29.94,29.86,10,10,10,20,8,26,0.00,0,,223
2012-10-25,66,54,41,25,21,16,42,29,16,30.32,30.18,30.10,10,10,10,28,5,33,0.00,1,,48
2012-10-26,64,52,41,21,14,9,39,23,13,30.42,30.31,30.19,10,10,7,22,12,30,0.00,0,,35
2012-10-27,71,55,39,18,12,7,28,20,12,30.24,30.16,30.07,10,10,9,6,2,,0.00,0,,181
2012-10-28,73,58,44,23,19,16,39,24,14,30.22,30.14,30.07,10,10,10,6,2,,0.00,0,,205
2012-10-29,75,58,42,23,21,18,39,24,13,30.28,30.19,30.14,10,10,10,9,1,,0.00,0,,170
2012-10-30,75,60,46,27,22,19,37,25,15,30.25,30.17,30.08,10,10,10,6,2,,0.00,0,,195
2012-10-31,75,60,44,27,23,19,39,25,16,30.20,30.11,30.02,10,10,10,10,3,,0.00,0,,169